Lid_Strength_Index
1 2 3 3 9 9 11 10 7 8 8 6 5 6 7 6 9 12 2 1 0 0 -1 -1 -2 -2 -2 -2 -2 -2 -2 -2 -2 -2 -2 -2 -2 -2 -2 -2 -2 -2 -2 -2 -2 -2 -2 -2 -2
3 3 3 5 10 12 12 8 9 7 6 5 5 6 7 8 4 4 3 0 -0 -0 -1 -1 -1 -2 -2 -2 -2 -2 -2 -2 -2 -2 -2 -2 -2 -2 -2 -2 -3 -2 -2 -2 -2 -2 -2 -2 -2
3 4 5 8 10 12 11 8 7 6 5 6 7 6 6 7 4 3 1 0 0 -0 -1 -1 -1 -2 -2 -2 -2 -2 -2 -2 -2 -2 -2 -2 -2 -2 -2 -2 -2 -2 -2 -2 -2 -2 -2 -2 -2
4 5 5 9 11 10 9 8 7 6 7 6 6 7 5 3 3 2 1 0 1 0 -0 -1 -1 -2 -2 -2 -2 -2 -2 -2 -2 -2 -2 -2 -2 -2 -2 -2 -2 -2 -2 -2 -2 -2 -2 -2 -2
4 5 9 10 10 10 9 7 6 7 7 7 6 7 7 3 1 1 1 0 1 0 -0 -1 -1 -1 -2 -2 -2 -2 -2 -2 -2 -2 -2 -2 -2 -2 -2 -2 -2 -2 -2 -2 -2 -2 -2 -2 -2
7 6 10 12 10 9 9 7 6 7 7 7 8 7 7 2 2 1 1 1 -0 0 -0 -1 0 -1 -1 -2 -2 -2 -2 -2 -2 -2 -2 -2 -2 -2 -2 -3 -2 -2 -2 -2 -2 -2 -2 -2 -2
7 8 10 10 10 9 8 7 8 8 8 7 7 8 6 4 2 1 1 1 -0 -0 -0 -0 -0 -0 -0 -1 -1 -1 -2 -1 -2 -2 -2 -2 -2 -2 -3 -3 -2 -2 -3 -2 -2 -2 -2 -2 -2
6 7 9 10 10 10 7 7 7 8 8 6 5 8 8 4 2 1 1 1 1 0 -0 -0 -0 -0 -0 -0 0 -0 -1 -1 -1 -1 -1 -1 -1 -1 -2 -1 -2 -2 -3 -2 -2 -2 -2 -2 -2
5 9 11 10 10 9 7 8 8 7 7 7 5 5 4 2 2 2 2 2 1 1 0 0 0 0 -0 -0 0 1 0 0 0 -0 0 0 -0 -0 -0 -1 -1 -2 -3 -3 -2 -2 -2 -2 -1
8 10 9 7 8 8 7 7 7 9 8 8 6 5 3 2 3 3 3 3 2 2 1 0 -0 0 0 -1 -0 -0 -0 -0 -0 -0 1 -1 -1 -1 -0 0 -1 -2 -2 -3 -2 -1 -1 -1 1
7 9 7 8 7 6 7 8 7 9 9 8 7 5 4 4 4 4 4 3 2 1 1 1 0 0 -0 0 -0 0 0 0 -0 -1 -0 -1 0 1 0 0 1 1 1 1 0 1 1 1 1
9 8 8 7 7 7 7 6 8 8 9 7 6 4 4 4 4 4 3 3 2 2 1 0 -0 0 0 -0 0 0 0 0 -0 -0 -0 0 0 1 0 1 1 1 2 2 1 1 1 1 1
10 9 8 7 8 8 7 8 9 8 7 7 5 4 4 4 4 3 3 2 2 2 1 1 -0 0 -0 1 0 0 0 1 0 0 -1 -0 0 1 1 1 1 1 1 2 2 2 2 2 1
9 9 9 8 9 8 8 10 9 8 7 7 7 6 4 4 4 4 3 3 2 2 1 0 0 -0 -0 0 1 1 1 0 1 1 0 0 1 1 1 1 1 1 1 2 2 2 2 2 2
9 10 10 10 9 10 9 11 11 9 9 8 7 7 6 5 4 3 3 3 2 2 1 1 0 -0 -0 -0 -0 1 0 0 0 0 0 0 0 1 1 1 1 1 1 2 2 2 2 2 2
11 11 13 10 9 9 10 13 8 8 9 9 9 9 8 7 5 4 3 3 2 2 1 1 0 0 0 0 -0 0 1 0 0 1 -0 0 0 0 2 2 1 1 2 3 2 2 3 3 3
12 15 13 12 9 10 11 12 9 9 10 10 10 9 9 8 7 5 3 3 2 2 1 1 1 1 0 -0 -0 -0 0 0 0 0 1 0 1 1 2 2 2 2 3 4 3 3 3 3 4
14 15 13 13 12 11 12 12 10 10 10 10 10 9 10 9 8 6 4 3 3 2 2 1 1 1 0 0 0 0 0 1 1 1 1 1 -0 1 2 2 3 3 4 4 4 4 4 4 4
13 13 14 12 11 12 12 12 10 9 10 10 10 10 9 9 8 7 6 4 3 3 2 2 1 1 1 1 1 1 1 1 0 -0 1 1 1 0 1 2 3 3 4 5 4 5 5 5 5
12 13 14 13 11 12 13 12 10 10 10 9 10 10 9 9 8 7 7 7 6 4 3 2 2 1 1 1 1 1 1 0 0 0 1 1 1 1 2 2 3 3 4 4 5 6 6 5 5
13 13 14 13 12 13 14 15 13 11 9 9 9 9 9 8 8 8 8 8 7 7 6 4 3 2 1 1 0 1 1 1 2 1 1 1 1 1 1 2 3 4 4 5 5 6 6 8 7
14 12 12 13 14 17 14 19 15 13 12 11 10 10 9 9 9 8 8 8 8 8 6 6 5 4 2 1 2 1 2 3 1 1 1 2 1 1 1 2 3 4 5 6 6 7 7 7 8
12 11 12 12 14 16 16 18 16 13 13 12 11 10 10 9 8 8 7 7 7 6 6 6 6 6 4 2 2 2 2 1 1 1 1 1 1 2 2 3 3 4 4 6 6 7 7 7 7
10 12 12 14 15 19 16 17 18 15 13 13 12 10 9 8 8 8 7 7 6 5 4 5 6 7 6 3 2 2 2 2 2 2 2 1 2 2 2 2 3 3 4 5 5 6 6 7 7
12 14 18 19 19 20 16 17 16 14 13 12 11 10 10 8 8 8 8 8 7 6 4 4 6 7 5 4 2 2 2 1 2 2 2 2 2 3 2 2 2 3 3 4 4 5 6 6 7
13 13 17 21 20 19 17 19 16 11 12 12 11 10 10 9 8 8 8 8 7 7 5 5 5 4 4 2 2 2 2 1 1 2 2 2 2 2 2 2 2 3 3 3 4 5 5 7 6
13 15 13 17 21 20 17 16 13 12 12 11 12 10 9 9 9 9 8 8 7 7 7 5 5 4 3 3 4 4 3 2 3 3 3 3 3 3 2 2 2 3 3 4 4 5 7 7 7
12 11 16 16 22 22 19 19 17 14 13 13 12 11 10 9 8 8 8 8 8 7 7 6 5 5 5 5 5 5 4 4 4 5 5 5 6 5 5 5 5 5 5 5 5 6 6 7 7
13 14 13 14 15 19 21 18 14 13 12 13 13 11 10 10 9 9 9 9 8 8 8 7 7 6 5 5 5 5 5 5 5 6 6 5 6 5 5 5 4 4 5 6 6 5 5 6 6
11 13 13 16 18 17 17 17 12 12 12 12 11 10 10 9 9 9 9 9 9 9 8 8 8 8 8 7 7 7 7 7 7 7 7 7 7 8 8 8 8 7 7 6 7 7 6 6 7